AirNav   Bose Proflight Series 2 Wireless Aviation Headset
 
 857 users online  

T05 Charles R Johnson Airport
Port Mansfield, Texas, USA

GOING TO PORT MANSFIELD?


FAA INFORMATION EFFECTIVE 07 NOVEMBER 2019

Location

FAA Identifier: T05
Lat/Long: 26-33-36.5600N 097-26-21.3000W
26-33.609333N 097-26.355000W
26.5601556,-97.4392500
(estimated)
Elevation: 10 ft. / 3 m (estimated)
Variation: 07E (1985)
From city: 1 mile NW of PORT MANSFIELD, TX
Time zone: UTC -6 (UTC -5 during Daylight Saving Time)
Zip code: 78598

Airport Operations

Airport use: Open to the public
Activation date: 06/1958
Control tower: no
ARTCC: HOUSTON CENTER
FSS: SAN ANGELO FLIGHT SERVICE STATION
NOTAMs facility: SJT (NOTAM-D service available)
Attendance: UNATNDD
HARBOR SUPERINTENDENT'S OFC ATNDD 0800-1650.
Wind indicator: lighted
Segmented circle: yes
Lights: MIRL RY 12/30 PRESET LOW INTST; TO INCR INTST ACTVT - CTAF.
Beacon: white-green (lighted land airport)
Operates sunset to sunrise.
Landing fee: no, FEE FOR OVERNIGHT TIE DOWN.

Airport Communications

CTAF: 122.9

Nearby radio navigation aids

VOR radial/distance  VOR name  Freq  Var
HRLr025/22.9HARLINGEN VOR/DME109.2005E
BROr346/38.3BROWNSVILLE VORTAC116.3009E

Airport Services

Fuel available: 100LL
FOR FUEL CALL 956-944-2325/2233 DURG NORMAL BUSINESS HRS.
Parking: tiedowns
Airframe service: NONE
Powerplant service: NONE
Bottled oxygen: NONE
Bulk oxygen: NONE

Runway Information

Runway 12/30

Dimensions: 3200 x 50 ft. / 975 x 15 m
Surface: asphalt, in good condition
Weight bearing capacity: 
Single wheel: 21.0
Runway edge lights: medium intensity
RUNWAY 12  RUNWAY 30
Latitude: 26-33.758333N26-33.460667N
Longitude: 097-26.597667W097-26.112833W
Elevation: 9.3 ft.9.6 ft.
Traffic pattern: leftleft
Runway heading: 117 magnetic, 124 true297 magnetic, 304 true
Markings: basic, in good conditionbasic, in good condition
Obstructions: 30 ft. pline, marked, 1460 ft. from runway, 42:1 slope to clear30 ft. pline, 1250 ft. from runway, 34:1 slope to clear

Airport Ownership and Management from official FAA records

Ownership: Publicly-owned
Owner: WILLACY COUNTY NAV DIST
400 W HIDALGO, STE 200
RAYMONDVILLE, TX 78580
Phone 956-689-3332
Manager: FRANK VASQUEZ
818 MANSFIELD DR. UNIT 78
PORT MANSFIELD, TX 78598
Phone 956-944-2325

Airport Operational Statistics

Aircraft operations: 100/year *
100% transient general aviation
* for 12-month period ending 11 January 2017

Additional Remarks

DEER ON & INVOF ARPT.
FOR CD CTC CORPUS CHRISTI APCH AT 361-299-4230.

Instrument Procedures

There are no published instrument procedures at T05.

Some nearby airports with instrument procedures:

KHRL - Valley International Airport (23 nm SW)
KPIL - Port Isabel-Cameron County Airport (24 nm S)
KTXW - Mid Valley Airport (37 nm SW)
KEBG - South Texas International Airport at Edinburg (37 nm W)
KBRO - Brownsville/South Padre Island International Airport (39 nm S)
 
Loc | Ops | Rwys | IFR | FBO | Links
Com | Nav | Svcs | Stats | Notes
Area around T05 (Charles R Johnson Airport)
 
Road maps at: MapQuest Bing Google
 
Aerial photo
WARNING: Photo may not be current or correct
Aerial photo of T05 (Charles R Johnson Airport)
Do you have a better or more recent aerial photo of Charles R Johnson Airport that you would like to share? If so, please send us your photo.

 
Sectional chart

 
Airport distance calculator
Flying to Charles R Johnson Airport? Find the distance to fly.

From to T05

Sunrise and sunset
Times for 20-Nov-2019
 Local
(UTC-6)
 Zulu
(UTC)
Morning civil twilight06:2912:29
Sunrise06:5412:54
Sunset17:3723:37
Evening civil twilight18:0200:02

Current date and time
Zulu (UTC)  21-Nov-2019 04:18:00
Local (UTC-6)  20-Nov-2019 22:18:00
 
METAR
KHRL 
23nm SW 
210352Z 16016KT 10SM -RA CLR 23/19 A2995 RMK AO2 RAB23 SLP140 P0000 T02330194 $
KPIL 
24nm S 
210353Z AUTO 17012KT 10SM CLR 23/20 A2995 RMK AO2 SLP143 T02330200
KTXW 
37nm SW 
210355Z AUTO 18009G14KT 10SM BKN110 22/19 A2994 RMK AO2 T02220190
KEBG 
38nm W 
210355Z AUTO 15008G16KT 10SM SCT020 23/19 A2996 RMK AO2 T02250187
KBRO 
40nm S 
210353Z 17012KT 10SM CLR 23/19 A2996 RMK AO2 SLP143 T02330194 $
TAF
KHRL 
23nm SW 
201720Z 2018/2118 16022G29KT P6SM FEW035 SCT250 FM210200 15014KT P6SM SCT060 BKN250 TEMPO 2109/2112 SCT015 BKN030 FM211200 16009KT P6SM FEW050 SCT200 FM211500 16012KT P6SM SCT018 BKN200
NOTAMs
Click for the latest NOTAMs
NOTAMs are issued by the DoD/FAA and will open in a separate window not controlled by AirNav.

 

 
 

FBO, Fuel Providers, and Aircraft Ground Support

  
 Business Name 
 
 Contact 
 
 Services / Description 
 
Fuel Prices
 
Comments
  
Willacy County Navigation District 956-944-2325
no information available

If you are affiliated with Willacy County Navigation District and would like to show here your services, contact info, web link, logo, and more, click here
100LL
RA $4.60 
 Updated 13-Nov-2019
 
   1 read write
RA=Restricted
Update Fuel Prices
 

Would you like to see your business listed on this page?

 If your business provides an interesting product or service to pilots, flight crews, aircraft, or users of the Charles R Johnson Airport, you should consider listing it here.  To start the listing process, click on the button below
 
Add a business
 

Other Pages about Charles R Johnson Airport

Update a link
 
Copyright © AirNav, LLC. All rights reserved. Privacy Policy  Contact